KINEIS-2D

Last updated on Thu Sep 24 2026 00:03:12 GMT+0000 (Coordinated Universal Time)

1 62930U 25028C 26266.43033788 .00000896 00000+0 13759-3 0 9995 2 62930 97.9191 316.9508 0002024 230.0098 130.0934 14.75924125 87207
UTC large
Height (km)
Speed (km/s)
/
Latitude / Longitude
Inclination (degrees)
Orbital Period (minutes)
Azimuth
Elevation
Range (km)
Doppler Factor

Next 0 passes for location: London (51.5072 / 0.1276)

No passes found over London.
KINEIS-2D